Wind_Speed
32 34 34 34 33 34 33 32 32 33 33 33 34 35 36 36 35 35 35 36 35 34 33 33 32 31 29 28 28 27 25 24 23 22 21 20 21 21 21 21 22 21
29 32 34 33 33 33 33 34 34 34 34 34 35 35 34 33 32 33 35 35 34 34 33 33 32 30 29 28 28 27 26 24 24 22 21 21 22 22 22 21 21 21
26 29 31 33 33 34 35 34 34 34 34 33 33 33 32 31 32 33 34 34 33 33 33 33 32 31 30 29 28 28 26 25 24 23 22 21 22 22 23 21 21 21
25 26 29 32 33 34 34 32 32 32 32 32 32 31 31 31 32 33 33 33 32 32 34 33 32 31 31 29 29 28 27 26 25 23 22 21 21 22 23 22 21 20
24 25 26 29 31 33 32 31 32 32 31 32 31 30 31 31 32 33 33 33 32 32 34 33 33 32 31 30 29 28 27 26 25 23 21 21 21 22 22 22 21 20
23 24 25 26 28 30 31 32 33 32 32 32 31 31 31 32 33 34 34 32 32 33 34 34 33 33 31 30 29 29 27 25 24 23 22 21 21 21 22 22 22 21
23 23 24 25 26 28 30 32 32 32 32 31 31 30 31 31 33 34 34 32 32 33 35 35 34 33 32 31 30 29 28 26 24 23 23 22 22 22 23 23 23 22
23 22 23 23 24 27 29 31 31 31 31 30 30 30 30 32 33 33 33 32 33 34 35 35 35 34 33 31 30 30 29 27 25 24 24 23 23 23 24 24 24 24
24 23 22 22 23 26 28 30 31 31 30 29 29 29 30 31 32 32 32 32 33 34 35 35 35 34 34 32 32 31 29 28 27 26 25 25 25 25 25 24 24 25
27 24 22 22 23 25 28 29 30 30 29 29 28 28 29 30 31 31 32 33 33 32 34 36 35 35 34 33 32 31 30 29 28 27 27 26 26 26 26 25 25 25
30 26 23 23 24 26 28 29 29 29 28 28 28 28 28 28 29 30 32 33 32 32 33 35 35 35 33 32 32 32 31 30 28 27 28 27 27 27 27 27 26 27
33 28 26 25 25 27 28 29 29 28 28 28 28 28 27 27 28 30 32 32 31 31 32 32 34 34 33 32 32 31 31 30 28 28 28 28 27 27 27 27 27 28
34 31 28 27 26 27 28 28 29 28 28 28 28 28 27 27 28 30 32 31 30 31 30 31 33 33 33 32 31 31 30 29 28 29 29 28 27 27 27 28 28 28
35 33 30 28 27 27 27 28 28 28 28 27 26 27 28 28 29 30 31 30 30 30 30 31 32 32 32 32 31 31 31 30 29 30 29 28 27 26 27 28 28 28
35 34 31 28 26 25 26 27 28 28 27 26 26 26 27 28 29 30 29 28 29 31 30 30 31 32 32 32 32 31 30 30 30 30 29 28 27 27 27 27 28 29
34 34 32 28 25 25 25 26 27 27 26 25 25 25 26 26 27 28 29 30 30 31 30 30 31 32 33 32 31 31 31 30 31 30 29 28 27 26 26 26 27 27
32 33 31 29 26 25 24 25 26 26 25 25 24 24 24 25 26 27 29 30 31 30 30 30 31 32 32 30 28 29 30 30 31 30 29 29 29 28 26 25 24 25
32 32 30 28 27 25 25 25 25 25 25 24 23 23 24 24 26 27 28 30 31 30 30 30 31 31 30 28 27 27 27 28 30 30 30 30 30 28 26 24 22 22
31 31 30 29 28 26 25 24 24 25 25 24 23 23 23 24 26 27 27 28 29 30 30 30 30 30 29 27 27 27 26 26 28 29 29 30 30 27 25 23 21 20
29 29 29 29 29 26 24 23 24 25 25 24 22 21 22 24 26 27 27 28 29 30 30 29 30 30 28 26 26 26 27 27 27 28 28 29 29 27 25 23 21 20
28 28 28 28 27 25 22 22 24 24 24 22 21 21 23 25 26 27 27 28 29 29 29 28 29 29 27 26 26 26 26 27 26 26 27 29 28 26 25 23 21 21
28 28 28 27 26 24 21 22 23 24 23 22 21 21 23 24 25 26 27 28 29 28 28 27 28 27 25 26 27 26 26 27 25 24 25 27 28 26 24 23 22 21
29 29 28 28 27 23 22 23 24 23 23 22 21 21 22 24 25 26 27 27 27 28 28 28 29 27 25 26 27 26 26 26 25 23 23 24 25 24 23 22 22 21
30 29 28 27 27 25 24 24 24 23 22 22 22 23 23 25 25 25 25 26 27 29 29 29 30 28 26 26 26 26 26 26 24 23 22 22 22 21 22 23 22 20
29 28 27 27 28 27 26 25 23 22 22 21 22 23 23 24 24 24 24 24 26 29 28 27 29 28 25 25 26 26 26 26 24 22 21 21 21 20 21 21 21 20
28 27 28 28 28 29 28 26 23 21 20 20 21 23 22 22 22 23 23 23 25 28 27 27 28 28 26 25 26 26 26 25 24 23 22 21 20 20 21 20 21 21
Wind_Direction
259 256 252 247 242 239 236 234 231 229 227 224 221 221 220 219 218 215 215 217 222 227 227 226 227 229 231 233 231 230 229 229 229 229 228 228 231 232 233 235 235 236
267 264 258 251 245 242 240 238 236 233 231 229 227 225 222 218 216 215 215 216 221 227 226 225 226 228 230 230 230 229 229 228 227 227 227 229 232 232 233 234 235 235
276 271 264 256 250 246 243 241 238 235 233 231 228 225 221 217 215 215 215 217 223 227 226 225 226 228 229 229 228 228 228 227 226 226 227 228 230 230 232 235 235 236
283 280 274 264 256 249 245 240 236 234 232 229 226 223 220 217 215 215 216 219 224 226 225 226 227 228 229 228 227 228 228 229 229 228 226 226 229 230 231 234 235 236
290 287 282 272 261 253 246 240 237 234 231 228 225 222 220 218 216 216 218 221 224 224 223 226 227 227 228 227 227 227 226 229 230 228 225 225 227 227 229 232 232 233
299 291 287 279 267 256 248 243 240 237 233 229 226 223 221 219 218 218 220 222 223 222 222 224 225 226 227 226 226 227 227 228 228 226 224 224 224 225 227 230 230 232
310 296 289 282 270 259 250 247 243 238 235 232 228 225 223 220 221 221 222 222 221 220 220 222 224 225 225 225 226 227 227 227 227 225 223 222 223 226 227 229 231 234
317 301 290 282 271 260 253 249 245 241 237 233 229 227 225 224 224 223 222 222 220 219 220 222 224 225 224 224 225 227 227 226 225 224 222 221 222 227 229 230 233 236
319 306 293 281 270 262 256 251 248 244 238 234 230 228 226 226 225 223 221 219 216 217 219 222 224 224 224 225 226 227 226 226 225 224 223 221 222 226 228 230 233 236
319 310 295 280 271 265 260 256 250 245 239 234 231 229 227 227 226 223 220 217 214 214 218 221 222 222 224 226 227 228 228 227 226 225 225 224 223 226 228 229 233 235
317 310 296 283 275 268 264 260 253 245 239 234 231 230 227 225 223 220 218 216 214 214 217 219 222 223 224 225 227 229 230 230 228 227 228 227 226 228 229 230 233 237
314 309 298 288 278 270 266 261 255 247 239 234 231 230 226 222 219 217 217 217 216 217 217 219 223 224 224 225 225 227 230 231 231 231 231 230 229 230 232 233 235 238
311 308 301 291 282 274 266 260 255 249 241 235 232 228 225 222 218 217 218 219 219 219 217 219 223 224 226 226 225 225 226 228 231 234 234 234 233 233 235 236 239 241
309 308 303 294 285 275 265 258 254 250 244 237 231 227 225 223 220 220 220 220 221 220 218 220 223 223 225 226 226 225 224 225 230 234 235 237 237 237 239 240 243 246
307 307 303 296 284 272 263 256 253 250 244 238 232 228 226 224 222 221 220 220 222 221 220 221 221 221 223 224 225 225 224 225 229 233 234 237 239 239 241 243 246 249
304 304 302 295 284 272 264 258 253 248 242 237 233 229 227 224 222 221 220 220 222 222 221 220 220 221 223 223 223 225 226 227 229 232 234 236 239 240 241 244 246 249
302 301 300 297 288 277 267 260 253 246 239 234 231 229 228 225 222 221 220 220 222 222 220 220 220 221 222 221 221 223 227 229 231 233 235 235 238 239 241 244 246 249
302 300 298 296 291 281 272 262 253 245 238 232 228 227 226 224 222 221 220 220 222 223 222 222 221 222 222 220 220 221 224 230 234 234 234 234 236 239 241 244 246 250
301 299 297 296 293 285 275 262 249 242 237 232 227 225 224 224 223 223 222 221 222 222 223 224 223 223 221 219 221 222 221 226 232 232 232 233 234 237 239 242 245 249
300 298 296 295 294 287 274 258 245 241 239 234 228 221 219 223 224 223 223 222 222 222 223 224 224 222 220 218 220 222 223 225 229 230 231 232 233 235 237 239 242 246
301 300 297 295 293 286 271 256 246 242 240 235 227 221 219 222 223 223 223 223 223 223 222 223 224 221 218 218 219 221 223 226 227 227 229 232 232 232 234 237 240 244
303 303 301 299 297 289 272 258 249 243 240 234 227 222 221 222 223 223 224 224 223 223 221 222 224 221 217 219 221 221 223 226 226 225 227 231 231 229 230 235 239 244
304 304 304 303 301 291 274 263 253 245 241 233 224 220 218 219 222 223 224 225 223 221 220 222 224 222 217 218 220 221 223 225 225 223 222 227 229 226 228 233 238 245
304 304 304 304 302 293 279 268 257 248 241 233 223 220 219 220 221 222 223 224 223 222 220 221 225 223 217 218 220 221 221 223 223 221 221 223 225 224 227 234 240 245
305 305 306 306 304 298 288 275 263 251 243 234 226 223 222 222 220 219 221 223 224 224 222 220 224 223 217 216 219 220 220 222 221 218 219 222 222 223 228 235 241 246
305 305 306 306 304 301 296 288 274 258 245 234 228 225 224 222 219 217 219 222 223 224 223 222 224 225 220 217 220 220 219 220 218 214 216 220 220 222 228 234 240 246
Height
694 694 693 692 692 691 692 692 693 694 694 695 695 696 697 699 701 704 706 709 712 714 716 717 719 721 724 726 727 728 727 727 727 728 729 730 731 733 734 735 736 736
692 691 690 690 689 688 689 689 689 690 690 691 692 693 694 696 699 701 703 705 708 711 714 715 716 718 720 723 725 725 725 725 725 726 727 728 729 731 732 733 734 734
689 689 688 686 686 685 684 685 685 686 687 688 689 690 692 694 695 698 700 702 705 709 712 713 714 716 717 719 721 722 723 723 723 724 724 725 727 729 730 731 732 733
687 686 685 684 683 682 682 682 682 683 684 684 685 687 688 690 692 694 697 699 702 706 709 711 712 713 715 716 718 719 720 720 721 721 721 722 724 726 728 729 730 731
685 684 683 682 681 681 680 680 679 679 680 680 682 684 685 687 688 691 694 696 699 702 705 708 709 711 712 714 715 716 717 718 719 719 719 720 722 724 726 727 728 728
683 682 682 680 679 679 678 677 676 676 677 677 679 680 682 684 685 687 690 692 696 698 701 704 705 707 709 711 712 713 714 715 716 717 716 717 719 721 723 725 725 725
680 680 680 679 678 677 676 675 675 674 674 675 676 677 679 681 682 684 686 689 692 695 697 699 701 704 706 707 709 710 710 711 713 714 714 714 716 718 720 721 722 722
678 677 677 677 676 675 674 673 672 672 672 673 674 675 676 677 679 680 683 685 688 691 693 696 698 700 702 704 706 707 707 708 709 711 711 711 713 715 716 718 718 719
676 674 674 674 673 673 672 670 670 670 670 671 671 672 673 674 675 677 679 682 684 687 689 692 694 696 698 700 702 704 704 705 706 707 708 707 709 710 712 714 715 715
675 672 671 671 670 670 669 668 667 667 667 668 668 669 670 671 672 673 676 678 680 683 685 687 690 692 694 696 698 701 702 702 703 704 704 704 704 706 708 710 711 711
673 670 669 667 667 667 667 666 665 664 664 664 665 666 667 668 669 671 673 675 676 679 681 683 686 688 691 692 695 697 699 700 701 701 701 701 701 702 704 706 707 707
671 668 666 664 663 664 664 664 664 663 662 661 661 662 663 665 667 668 670 671 673 675 678 680 683 685 688 689 690 693 696 697 699 699 699 698 698 699 700 702 703 704
669 666 663 662 660 660 660 661 662 661 660 658 657 658 660 661 663 665 666 668 670 672 674 676 679 681 684 686 687 689 691 693 695 696 696 696 696 696 698 699 700 701
667 664 661 659 657 657 657 658 658 658 657 656 654 654 655 657 659 661 663 665 666 668 670 673 675 677 680 683 684 685 686 688 690 692 693 693 693 694 695 697 697 698
665 662 659 656 655 654 654 654 654 654 655 654 652 651 651 653 656 658 660 662 663 665 667 669 671 673 675 677 680 682 684 684 685 687 689 690 691 692 692 694 695 695
662 659 656 654 651 650 649 649 650 651 651 651 650 648 648 650 652 655 657 658 660 661 663 665 666 668 670 673 676 678 680 682 682 683 685 686 687 689 689 690 692 692
659 656 653 650 648 646 645 645 646 647 646 646 645 645 646 647 649 651 653 655 656 658 659 661 662 664 667 670 673 675 676 678 678 679 681 682 684 685 686 687 688 689
655 652 650 647 644 642 640 641 642 643 642 641 640 640 642 644 646 648 649 651 653 654 655 657 658 661 664 666 669 671 673 674 675 675 677 678 680 681 682 684 685 686
652 649 646 643 640 638 637 637 638 639 638 636 634 635 638 641 642 644 646 647 649 650 652 653 655 657 660 663 666 668 670 671 671 672 673 674 676 678 679 681 682 683
649 646 642 639 637 635 634 634 634 634 633 632 631 631 633 636 639 640 642 643 645 646 648 650 652 654 657 660 662 664 666 668 669 669 670 671 673 675 676 678 679 680
647 643 640 636 634 631 630 630 629 629 628 628 628 627 629 632 635 636 638 639 641 642 644 646 648 650 653 656 659 661 663 665 666 666 667 668 669 671 673 674 676 677
643 640 636 633 631 629 627 626 625 624 624 624 624 624 625 628 630 632 634 635 637 639 641 643 644 647 650 652 655 658 659 661 663 663 664 665 666 668 670 672 673 675
640 637 633 630 628 626 624 622 621 620 619 620 621 621 622 623 625 628 629 631 634 635 637 639 640 643 646 649 651 654 656 658 659 660 661 662 663 665 667 669 670 672
636 633 630 627 625 623 621 619 617 616 616 616 617 617 618 619 621 623 625 627 630 631 633 635 636 639 642 645 648 650 652 654 656 657 659 660 661 663 664 666 668 669
633 630 627 625 623 620 618 616 614 613 612 612 613 613 614 615 617 619 621 624 625 627 630 632 633 636 639 642 644 646 649 651 652 654 656 657 659 660 662 664 665 667
631 628 625 623 620 618 615 612 610 609 609 609 610 610 611 612 614 616 618 620 622 624 626 629 630 632 635 638 641 642 644 647 649 650 652 654 656 658 660 661 663 664